TimeCST,TemperatureF,Dew PointF,Humidity,Sea Level PressureIn,VisibilityMPH,Wind Direction,Wind SpeedMPH,Gust SpeedMPH,PrecipitationIn,Events,Conditions,WindDirDegrees,DateUTC
12:15 AM,29.8,21.6,71,29.92,10.0,SSE,9.2,-,N/A,,Clear,160,2012-11-25 06:15:00
12:35 AM,30.0,21.2,70,29.91,10.0,South,8.1,-,N/A,,Clear,170,2012-11-25 06:35:00
12:55 AM,29.8,21.6,71,29.91,10.0,South,8.1,-,N/A,,Clear,170,2012-11-25 06:55:00
1:15 AM,29.8,21.6,71,29.90,10.0,SSE,8.1,-,N/A,,Clear,160,2012-11-25 07:15:00
1:35 AM,30.2,21.7,71,29.90,10.0,South,10.4,18.4,N/A,,Clear,170,2012-11-25 07:35:00
1:55 AM,30.2,22.1,72,29.88,10.0,South,10.4,-,N/A,,Clear,170,2012-11-25 07:55:00
2:15 AM,31.1,22.1,69,29.88,10.0,South,10.4,-,N/A,,Scattered Clouds,180,2012-11-25 08:15:00
2:35 AM,31.6,22.1,68,29.88,10.0,South,11.5,-,N/A,,Clear,190,2012-11-25 08:35:00
2:55 AM,31.6,22.3,68,29.87,10.0,South,9.2,-,N/A,,Mostly Cloudy,180,2012-11-25 08:55:00
3:15 AM,31.5,22.6,70,29.86,10.0,South,6.9,-,N/A,,Mostly Cloudy,180,2012-11-25 09:15:00
3:35 AM,31.1,22.8,71,29.86,10.0,South,9.2,-,N/A,,Scattered Clouds,180,2012-11-25 09:35:00
3:55 AM,31.1,23.0,72,29.86,10.0,SSW,6.9,-,N/A,,Clear,200,2012-11-25 09:55:00
4:15 AM,30.7,23.5,75,29.86,10.0,South,4.6,-,N/A,,Clear,190,2012-11-25 10:15:00
4:35 AM,31.1,23.9,75,29.86,10.0,South,3.5,-,N/A,,Clear,190,2012-11-25 10:35:00
4:55 AM,30.9,23.7,75,29.86,10.0,SSW,4.6,-,N/A,,Clear,210,2012-11-25 10:55:00
5:15 AM,30.7,23.9,76,29.85,10.0,SSW,4.6,-,N/A,,Clear,200,2012-11-25 11:15:00
5:35 AM,31.1,23.9,75,29.86,10.0,SW,4.6,-,N/A,,Clear,220,2012-11-25 11:35:00
5:55 AM,31.1,23.9,75,29.86,10.0,SW,3.5,-,N/A,,Clear,230,2012-11-25 11:55:00
6:15 AM,31.1,24.1,75,29.86,10.0,Calm,Calm,-,N/A,,Clear,0,2012-11-25 12:15:00
6:35 AM,31.6,23.9,73,29.88,10.0,Calm,Calm,-,N/A,,Clear,0,2012-11-25 12:35:00
6:55 AM,31.1,23.9,75,29.88,10.0,Calm,Calm,-,N/A,,Clear,0,2012-11-25 12:55:00
7:15 AM,30.7,23.9,76,29.88,10.0,West,4.6,-,N/A,,Clear,270,2012-11-25 13:15:00
7:35 AM,29.5,23.5,79,29.88,10.0,Calm,Calm,-,N/A,,Clear,0,2012-11-25 13:35:00
7:55 AM,30.2,24.4,79,29.89,10.0,Calm,Calm,-,N/A,,Clear,0,2012-11-25 13:55:00
8:15 AM,32.0,26.1,79,29.89,10.0,Calm,Calm,-,N/A,,Clear,0,2012-11-25 14:15:00
8:35 AM,34.0,26.6,74,29.91,10.0,WNW,5.8,-,N/A,,Clear,290,2012-11-25 14:35:00
8:55 AM,34.5,26.6,73,29.91,10.0,WNW,6.9,-,N/A,,Clear,290,2012-11-25 14:55:00
9:15 AM,35.2,26.1,69,29.91,10.0,WNW,8.1,-,N/A,,Clear,290,2012-11-25 15:15:00
9:35 AM,38.1,26.6,63,29.91,10.0,NW,9.2,-,N/A,,Clear,310,2012-11-25 15:35:00
9:55 AM,39.7,25.9,58,29.92,10.0,NW,5.8,-,N/A,,Clear,310,2012-11-25 15:55:00
10:15 AM,39.6,25.9,58,29.92,10.0,NW,6.9,-,N/A,,Clear,320,2012-11-25 16:15:00
10:35 AM,42.1,26.4,54,29.92,10.0,NW,10.4,-,N/A,,Clear,310,2012-11-25 16:35:00
10:55 AM,42.1,26.2,53,29.92,10.0,NW,9.2,-,N/A,,Clear,320,2012-11-25 16:55:00
11:15 AM,42.3,25.5,52,29.92,10.0,NNW,9.2,-,N/A,,Clear,330,2012-11-25 17:15:00
11:35 AM,43.0,26.1,51,29.92,10.0,WNW,6.9,-,N/A,,Clear,300,2012-11-25 17:35:00
11:55 AM,42.3,25.5,52,29.92,10.0,WNW,6.9,-,N/A,,Scattered Clouds,290,2012-11-25 17:55:00
12:15 PM,43.0,25.7,51,29.92,10.0,NW,6.9,-,N/A,,Scattered Clouds,320,2012-11-25 18:15:00
12:35 PM,43.7,24.8,47,29.92,10.0,WNW,6.9,-,N/A,,Clear,300,2012-11-25 18:35:00
12:55 PM,43.7,25.2,48,29.92,10.0,WNW,8.1,-,N/A,,Clear,290,2012-11-25 18:55:00
1:15 PM,43.5,25.2,48,29.92,10.0,West,6.9,-,N/A,,Clear,280,2012-11-25 19:15:00
1:35 PM,44.8,25.3,47,29.92,10.0,WNW,10.4,-,N/A,,Scattered Clouds,290,2012-11-25 19:35:00
1:55 PM,43.3,25.5,49,29.91,10.0,WNW,5.8,-,N/A,,Clear,300,2012-11-25 19:55:00
2:15 PM,42.8,25.3,50,29.91,10.0,WNW,9.2,-,N/A,,Clear,300,2012-11-25 20:15:00
2:35 PM,42.4,25.9,52,29.92,10.0,WNW,6.9,-,N/A,,Clear,300,2012-11-25 20:35:00
2:55 PM,43.2,25.5,50,29.92,10.0,WNW,9.2,-,N/A,,Clear,300,2012-11-25 20:55:00
3:15 PM,42.8,25.0,49,29.94,10.0,WNW,9.2,-,N/A,,Clear,300,2012-11-25 21:15:00
3:35 PM,41.9,25.2,52,29.95,10.0,NW,9.2,-,N/A,,Scattered Clouds,320,2012-11-25 21:35:00
3:55 PM,41.2,25.9,55,29.96,10.0,NNW,10.4,-,N/A,,Mostly Cloudy,330,2012-11-25 21:55:00
4:15 PM,40.6,25.7,55,29.96,10.0,NW,9.2,-,N/A,,Overcast,310,2012-11-25 22:15:00
4:35 PM,39.9,26.6,59,29.96,10.0,NW,5.8,-,N/A,,Overcast,310,2012-11-25 22:35:00
4:55 PM,39.2,26.8,61,29.96,10.0,NW,3.5,-,N/A,,Overcast,310,2012-11-25 22:55:00
5:15 PM,38.8,27.0,62,29.96,10.0,NW,5.8,-,N/A,,Overcast,320,2012-11-25 23:15:00
5:35 PM,39.2,26.6,61,29.98,10.0,NW,8.1,-,N/A,,Overcast,320,2012-11-25 23:35:00
5:55 PM,38.8,26.6,61,29.99,10.0,NNW,5.8,-,N/A,,Overcast,330,2012-11-25 23:55:00
6:15 PM,38.3,26.8,63,29.99,10.0,North,9.2,-,N/A,,Overcast,350,2012-11-26 00:15:00
6:35 PM,37.4,27.3,67,29.99,10.0,North,6.9,-,N/A,,Scattered Clouds,350,2012-11-26 00:35:00
6:55 PM,37.6,26.8,65,30.01,10.0,NNW,6.9,-,N/A,,Mostly Cloudy,330,2012-11-26 00:55:00
7:15 PM,37.6,26.8,65,30.02,10.0,NW,6.9,-,N/A,,Overcast,320,2012-11-26 01:15:00
7:35 PM,37.4,26.8,66,30.02,10.0,NNW,5.8,-,N/A,,Overcast,330,2012-11-26 01:35:00
7:55 PM,37.0,27.0,67,30.02,10.0,NW,5.8,-,N/A,,Overcast,320,2012-11-26 01:55:00
8:15 PM,36.5,27.5,70,30.03,10.0,WNW,4.6,-,N/A,,Overcast,300,2012-11-26 02:15:00
8:35 PM,36.1,27.3,70,30.04,10.0,NW,6.9,-,N/A,,Overcast,320,2012-11-26 02:35:00
8:55 PM,36.1,27.3,70,30.05,10.0,NNW,6.9,-,N/A,,Overcast,330,2012-11-26 02:55:00
9:15 PM,36.1,26.4,68,30.05,10.0,NNW,6.9,-,N/A,,Overcast,330,2012-11-26 03:15:00
9:35 PM,35.6,26.2,69,30.06,10.0,NNW,5.8,-,N/A,,Overcast,330,2012-11-26 03:35:00
9:55 PM,35.2,26.4,70,30.06,10.0,NNW,5.8,-,N/A,,Overcast,340,2012-11-26 03:55:00
10:15 PM,34.7,26.4,72,30.07,10.0,NW,3.5,-,N/A,,Mostly Cloudy,320,2012-11-26 04:15:00
10:35 PM,33.6,25.7,73,30.08,10.0,NW,3.5,-,N/A,,Scattered Clouds,310,2012-11-26 04:35:00
10:55 PM,32.2,25.5,76,30.09,10.0,NW,3.5,-,N/A,,Scattered Clouds,310,2012-11-26 04:55:00
11:15 PM,31.5,25.2,78,30.09,10.0,Calm,Calm,-,N/A,,Mostly Cloudy,0,2012-11-26 05:15:00
11:35 PM,30.2,24.4,79,30.09,10.0,WNW,3.5,-,N/A,,Scattered Clouds,290,2012-11-26 05:35:00
11:55 PM,30.7,25.0,79,30.10,10.0,WNW,4.6,-,N/A,,Clear,290,2012-11-26 05:55:00